Location: ??????
(30.0081°N, 31.2109°E)
Time: 07:06:39
(UTC+00:00)

Hubble Space Telescope - Pass Details

Date: 03 March 2021
Orbit: 535 x 539 km, 28.5° (Epoch: 15 April)

Event Time Altitude Azimuth Distance (km) Brightness Sun altitude
Rises 17:29:25 0° 236° (SW) 2,660 5.1 -21.1°
Reaches altitude 10° 17:31:50 10° 226° (SW) 1,772 3.9 -21.6°
Enters shadow 17:34:54 31° 181° (S) 944 1.9 -22.3°
